Location: Prairie View Elementary School
(39.8322°N, 99.5698°W)
Time: 01:09:43
(UTC+00:00)

Atlas Centaur 2 - Pass Details

Date: 08 December 2019
Orbit: 459 x 1310 km, 30.4° (Epoch: 26 January)

Event Time Altitude Azimuth Distance (km) Brightness Sun altitude
Rises 00:51:29 0° 264° (W) 3,955 7.3 -18.3°
Reaches altitude 10° 00:54:27 10° 255° (WSW) 3,099 6.4 -18.8°
Maximum altitude 01:01:18 33° 196° (SSW) 2,014 4.4 -20.1°
Drops below altitude 10° 01:08:37 10° 137° (SE) 3,317 5.0 -21.5°
Enters shadow 01:09:16 - 135° (SE) 3,500 5.1 -21.6°
